Fullerton, CA

12:52 AM PST on December 17, 2017 (GMT -0800)
Fullerton Municipal

Weather History for KFUL - May, 2009

Change the Weather History Date:

Sunday, May 31, 2009

  Actual Average Record
Temperature  
Mean Temperature 67 °F 68 °F  
Max Temperature 72 °F 76 °F 88 °F (2006)
Min Temperature 61 °F 59 °F 52 °F (2011)
Degree Days  
Heating Degree Days 0 0  
Month to date heating degree days 2 31  
Since 1 July heating degree days 996 1224  
Cooling Degree Days 2 3  
Month to date cooling degree days 116 71  
Year to date cooling degree days 201 123  
Growing Degree Days 16 (Base 50)    
Moisture  
Dew Point 55 °F    
Average Humidity 71    
Maximum Humidity 84    
Minimum Humidity 57    
Precipitation  
Precipitation 0.00 in 0.00 in 0.04 in (1965)
Month to date precipitation T 0.25  
Year to date precipitation 5.38 9.56  
Since 1 July precipitation 10.01  
Snow  
Snow 0.00 in - - ()
Month to date snowfall 0.0  
Year to date snowfall 0.0  
Snow Depth 0.00 in    
Sea Level Pressure  
Sea Level Pressure 29.95 in    
Wind  
Wind Speed 3 mph (SW)    
Max Wind Speed 12 mph    
Max Gust Speed 14 mph    
Visibility 9 miles    
Events      
T = Trace of Precipitation, MM = Missing Value Source: NWS Daily Summary

Daily Weather History Graph

Daily Weather History Graph

Search for Another Location

Airport or City:

Trip Planner

Search our weather history database for the weather conditions in past years. The results will help you decide how hot, cold, wet, or windy it might be!

Date:

Astronomy

May. 31, 2009 Rise Set
Actual Time 5:42 AM PDT 7:57 PM PDT
Civil Twilight 5:13 AM PDT 8:26 PM PDT
Nautical Twilight 4:38 AM PDT 9:01 PM PDT
Astronomical Twilight 4:00 AM PDT 9:39 PM PDT
Moon 1:28 PM PDT (5/31) 1:16 AM PDT (5/31)
Length of Visible Light 15h 12m
Length of Day
14h 15m
First Quarter, 57% of the Moon is Illuminated
May 31
First Quarter
Jun 7
Full
Jun 15
Last Quarter
Jun 22
New
Jun 29
First Quarter

Hourly Weather History & Observations

Time (PDT) Temp. Dew Point Humidity Pressure Visibility Wind Dir Wind Speed Gust Speed Precip Events Conditions
12:53 AM 63.0 °F 54.0 °F 72% 29.99 in 9.0 mi Calm Calm - N/A   Overcast
1:53 AM 62.1 °F 55.0 °F 78% 29.98 in 9.0 mi WSW 4.6 mph - N/A   Overcast
2:53 AM 61.0 °F 55.0 °F 81% 29.97 in 7.0 mi SW 3.5 mph - N/A   Overcast
3:53 AM 62.1 °F 55.0 °F 78% 29.96 in 7.0 mi Calm Calm - N/A   Overcast
4:53 AM 61.0 °F 55.0 °F 81% 29.97 in 7.0 mi SSW 3.5 mph - N/A   Overcast
5:53 AM 61.0 °F 55.0 °F 81% 29.97 in 7.0 mi Calm Calm - N/A   Overcast
6:53 AM 61.0 °F 55.9 °F 83% 29.98 in 5.0 mi Calm Calm - N/A   Haze
7:53 AM 62.1 °F 55.0 °F 78% 29.99 in 7.0 mi Calm Calm - N/A   Overcast
8:53 AM 63.0 °F 55.0 °F 75% 29.99 in 9.0 mi Calm Calm - N/A   Overcast
9:53 AM 64.0 °F 54.0 °F 70% 29.99 in 10.0 mi Variable 3.5 mph - N/A   Overcast
10:53 AM 64.0 °F 54.0 °F 70% 29.98 in 10.0 mi South 3.5 mph - N/A   Overcast
11:53 AM 66.9 °F 54.0 °F 63% 29.97 in 10.0 mi Calm Calm - N/A   Overcast
12:53 PM 66.9 °F 54.0 °F 63% 29.96 in 10.0 mi Calm Calm - N/A   Overcast
1:53 PM 69.1 °F 55.0 °F 61% 29.94 in 10.0 mi South 5.8 mph - N/A   Overcast
2:53 PM 70.0 °F 55.0 °F 59% 29.92 in 10.0 mi SW 5.8 mph - N/A   Overcast
3:53 PM 72.0 °F 55.9 °F 57% 29.89 in 8.0 mi WNW 5.8 mph - N/A   Mostly Cloudy
4:03 PM 71.6 °F 55.4 °F 57% 29.89 in 8.0 mi Variable 4.6 mph - N/A   Scattered Clouds
4:53 PM 71.1 °F 55.9 °F 59% 29.89 in 7.0 mi SW 5.8 mph - N/A   Partly Cloudy
5:53 PM 70.0 °F 55.0 °F 59% 29.88 in 9.0 mi WSW 5.8 mph - N/A   Clear
6:53 PM 66.9 °F 55.0 °F 66% 29.89 in 10.0 mi SSW 8.1 mph - N/A   Clear
7:53 PM 64.0 °F 54.0 °F 70% 29.91 in 10.0 mi SW 8.1 mph - N/A   Clear
8:11 PM 64.4 °F 55.4 °F 73% 29.92 in 10.0 mi SW 5.8 mph - N/A   Mostly Cloudy
8:53 PM 64.0 °F 55.0 °F 73% 29.92 in 10.0 mi Calm Calm - N/A   Overcast
9:53 PM 64.0 °F 55.0 °F 73% 29.94 in 10.0 mi WNW 3.5 mph - N/A   Overcast
10:53 PM 64.0 °F 55.0 °F 73% 29.94 in 10.0 mi NNW 3.5 mph - N/A   Overcast
11:53 PM 64.0 °F 55.0 °F 73% 29.94 in 9.0 mi Calm Calm - N/A   Overcast